CZ-6A DEB, 55886

Orbit data source: Space-Track

CZ-6A DEB, 55886 is space debris in SSO originally from a launch on Fri, 11 Nov 2022 UTC launched from the Taiyaun Space Center, China (TSC). Debris objects in space refer to the collection of defunct objects orbiting the Earth. Examples of debris include non-operational satellites, rocket bodies, and fragments generated from explosions, collisions, or faulty payload assembly.

Loading next visibility...
Identifier
55886, 2022-151AAJ
Orbit
SSO
Country
Flag of CNCN / PRC
Related business
Manufacturer
SAST
Mission
Spacecraft
Bus & Motor
Unknown
Mass
Unknown
Launch date (UTC)
2022-11-11 (4 years ago)
Launch vehicle
Unknown
Launch site
Taiyaun Space Center, China (TSC)
Object type
Payload
Rocket body
Debris
Shape & HBR
Unknown shape, 0.1 m
Radar Cross Section
Small (<0.1 m²)

Expand to show TLE details & history
Last TLE update: 2 days ago

TLE from 2 days ago
0 CZ-6A DEB
1 55886U 22151AAJ 26171.07668284  .00004765  00000-0  13885-2 0  9990
2 55886  98.7476 213.7984 0035875 275.3836  84.3261 14.44275071 96814
Epoch: 2026-06-20T01:50Z
TLE epoch observation values (Epoch: 2026-06-20T01:50:25.397Z)
Latitude
-0.00005°
Longitude
-82.10391°
Altitude
744.919 km
Speed
7.484 km/s
True Right ascension
14h 15m 11s
True Declination
0° 00' 00"
Sunlit
Object was in full shadow at epoch
Visualization orbit readout
Latitude
Unknown
Longitude
Unknown
Altitude
Unknown
Speed
Unknown
Apparent Right ascension
Unknown
Apparent Declination
Unknown
Sunlit
N/A
Visualization observer readout
Local Sidereal Time
21:52:26
Azimuth
Unknown
Elevation
Unknown
Doppler factor
Unknown
Orbital elements
Apogee altitude
767.078 km
Perigee altitude
715.995 km
Semi-major axis
7,119.673 km
Eccentricity
0.00359
Inclination
98.7476°
RAAN
213.7984°
Arg. of periapsis
275.3836°
True anomaly
84.73536°
Mean anomaly
84.3261°
Eccentric anomaly
84.53071°
Mean motion
3.61288 °/min
Orbital period
99.64 mins
BSTAR
0.0013885
Loading maneuver chart data...
Computing Atmospheric mass density...
Loading historical data...
Loading historical data...
Loading historical data...
Loading historical data...
Loading historical data...
Loading historical data...
Loading historical data...

Documentation

Showing up to 5 results
|